Weather History for KHCD - March, 2013

Change the Weather History Date:

Wednesday, March 27, 2013

  Actual Average Record
Temperature  
Mean Temperature 20 °F -  
Max Temperature 35 °F 45 °F 66 °F (2012)
Min Temperature 5 °F 26 °F 1 °F (2001)
Degree Days  
Heating Degree Days 45    
Moisture  
Dew Point 15 °F    
Average Humidity 78    
Maximum Humidity 96    
Minimum Humidity 56    
Precipitation  
Precipitation 0.00 in - - ()
Sea Level Pressure  
Sea Level Pressure 30.32 in    
Wind  
Wind Speed 1 mph (ESE)    
Max Wind Speed 6 mph    
Max Gust Speed -    
Visibility 8 miles    
Events Fog    
Averages and records for this station are not official NWS values.
T = Trace of Precipitation, MM = Missing Value Source: NWS Daily Summary

Daily Weather History Graph

Daily Weather History Graph

Search for Another Location

Airport or City:

Trip Planner

Search our weather history database for the weather conditions in past years. The results will help you decide how hot, cold, wet, or windy it might be!

Date:

Astronomy

Mar. 27, 2013 Rise Set
Actual Time 7:07 AM CDT 7:39 PM CDT
Civil Twilight 6:37 AM CDT 8:08 PM CDT
Nautical Twilight 6:02 AM CDT 8:43 PM CDT
Astronomical Twilight 5:27 AM CDT 9:19 PM CDT
Moon 8:27 PM CDT (3/27) 6:56 AM CDT (3/27)
Length of Visible Light 13h 31m
Length of Day
12h 32m
Full, 100% of the Moon is Illuminated
Mar 27
Full
Apr 2
Last Quarter
Apr 10
New
Apr 18
First Quarter
Apr 25
Full

Hourly Weather History & Observations

Time (CDT) Temp. Windchill Dew Point Humidity Pressure Visibility Wind Dir Wind Speed Gust Speed Precip Events Conditions
12:14 AM 10.4 °F - 8.6 °F 92% 30.30 in 7.0 mi Calm Calm - N/A   Clear
12:34 AM 11.3 °F - 10.0 °F 95% 30.30 in 1.0 mi Calm Calm - N/A   Mist
12:54 AM 12.4 °F - 11.3 °F 95% 30.31 in 0.5 mi Calm Calm - N/A Fog Light Freezing Fog
1:13 AM 10.9 °F - 9.5 °F 94% 30.31 in 5.0 mi Calm Calm - N/A   Clear
1:34 AM 10.9 °F - 9.1 °F 92% 30.31 in 2.0 mi Calm Calm - N/A   Clear
1:54 AM 10.0 °F - 8.4 °F 93% 30.31 in 0.5 mi Calm Calm - N/A Fog Light Freezing Fog
2:13 AM 9.9 °F - 8.4 °F 94% 30.30 in 0.2 mi Calm Calm - N/A Fog Light Freezing Fog
2:34 AM 8.6 °F - 6.6 °F 92% 30.30 in 0.5 mi Calm Calm - N/A Fog Light Freezing Fog
2:54 AM 7.7 °F - 5.7 °F 92% 30.30 in 0.8 mi Calm Calm - N/A   Mist
3:01 AM 7.9 °F - 5.7 °F 91% 30.30 in 1.0 mi Calm Calm - N/A   Mist
3:25 AM 6.8 °F - 5.0 °F 92% 30.30 in 7.0 mi Calm Calm - N/A   Clear
3:45 AM 5.0 °F - 3.2 °F 92% 30.31 in 10.0 mi Calm Calm - N/A   Clear
4:05 AM 5.0 °F - 3.2 °F 92% 30.31 in 10.0 mi Calm Calm - N/A   Clear
4:25 AM 6.8 °F - 3.2 °F 85% 30.31 in 10.0 mi Calm Calm - N/A   Clear
4:45 AM 6.8 °F - 5.0 °F 92% 30.31 in 10.0 mi Calm Calm - N/A   Clear
5:05 AM 5.0 °F - 3.2 °F 92% 30.31 in 10.0 mi Calm Calm - N/A   Clear
5:25 AM 8.6 °F - 6.8 °F 92% 30.31 in 0.5 mi Calm Calm - N/A   Unknown
5:45 AM 5.0 °F - 1.4 °F 85% 30.30 in 7.0 mi Calm Calm - N/A   Clear
6:05 AM 5.0 °F - 3.2 °F 92% 30.31 in 7.0 mi Calm Calm - N/A   Clear
6:25 AM 6.8 °F - 5.0 °F 92% 30.30 in 7.0 mi Calm Calm - N/A   Clear
6:45 AM 5.0 °F - 1.4 °F 85% 30.30 in 10.0 mi Calm Calm - N/A   Clear
7:05 AM 6.8 °F - 3.2 °F 85% 30.31 in 10.0 mi Calm Calm - N/A   Clear
7:25 AM 5.0 °F - 3.2 °F 92% 30.31 in 10.0 mi Calm Calm - N/A   Clear
7:45 AM 5.0 °F - 1.4 °F 85% 30.31 in 10.0 mi Calm Calm - N/A   Clear
8:05 AM 5.0 °F - 3.2 °F 92% 30.32 in 10.0 mi Calm Calm - N/A   Clear
8:25 AM 7.2 °F - 4.6 °F 89% 30.32 in 5.0 mi Calm Calm - N/A   Clear
8:32 AM 7.7 °F - 5.4 °F 90% 30.32 in 5.0 mi Calm Calm - N/A   Clear
8:54 AM 10.2 °F - 7.9 °F 90% 30.32 in 7.0 mi Calm Calm - N/A   Clear
9:14 AM 13.8 °F - 12.0 °F 93% 30.33 in 7.0 mi Calm Calm - N/A   Clear
9:34 AM 16.7 °F - 15.3 °F 94% 30.33 in 10.0 mi Calm Calm - N/A   Clear
9:53 AM 17.8 °F - 16.2 °F 93% 30.33 in 7.0 mi Calm Calm - N/A   Clear
10:14 AM 20.8 °F - 19.8 °F 96% 30.34 in 10.0 mi Calm Calm - N/A   Clear
10:34 AM 23.9 °F - 23.0 °F 96% 30.34 in 10.0 mi Calm Calm - N/A   Clear
10:54 AM 24.8 °F 20.5 °F 23.0 °F 93% 30.34 in 10.0 mi ESE 3.5 mph - N/A   Clear
11:14 AM 26.8 °F 22.8 °F 21.6 °F 81% 30.34 in 10.0 mi ESE 3.5 mph - N/A   Clear
11:34 AM 29.5 °F - 20.1 °F 68% 30.34 in 10.0 mi Calm Calm - N/A   Clear
11:51 AM 30.9 °F - 20.8 °F 66% 30.34 in 10.0 mi Calm Calm - N/A   Clear
12:14 PM 32.0 °F 27.5 °F 21.7 °F 66% 30.34 in 10.0 mi SE 4.6 mph - N/A   Clear
12:34 PM 32.4 °F 29.1 °F 22.1 °F 66% 30.34 in 10.0 mi SE 3.5 mph - N/A   Clear
12:54 PM 32.9 °F 29.8 °F 22.3 °F 65% 30.34 in 10.0 mi SE 3.5 mph - N/A   Clear
1:14 PM 33.4 °F 28.1 °F 21.9 °F 63% 30.34 in 10.0 mi SE 5.8 mph - N/A   Clear
1:31 PM 33.8 °F 28.6 °F 22.5 °F 63% 30.34 in 10.0 mi ESE 5.8 mph - N/A   Clear
1:54 PM 33.8 °F 29.6 °F 22.3 °F 63% 30.34 in 10.0 mi SE 4.6 mph - N/A   Scattered Clouds
2:14 PM 34.7 °F 30.6 °F 21.7 °F 59% 30.33 in 10.0 mi SE 4.6 mph - N/A   Scattered Clouds
2:34 PM 34.3 °F 31.4 °F 21.9 °F 60% 30.33 in 10.0 mi SE 3.5 mph - N/A   Clear
2:54 PM 34.7 °F 30.6 °F 21.0 °F 57% 30.33 in 10.0 mi ESE 4.6 mph - N/A   Scattered Clouds
3:14 PM 34.7 °F 31.8 °F 20.8 °F 57% 30.32 in 10.0 mi SE 3.5 mph - N/A   Clear
3:34 PM 34.7 °F 31.8 °F 21.0 °F 57% 30.32 in 10.0 mi ESE 3.5 mph - N/A   Clear
3:51 PM 34.7 °F 30.6 °F 21.7 °F 59% 30.31 in 10.0 mi ESE 4.6 mph - N/A   Scattered Clouds
4:14 PM 34.7 °F 30.6 °F 22.5 °F 61% 30.31 in 10.0 mi ESE 4.6 mph - N/A   Scattered Clouds
4:34 PM 34.9 °F - 21.7 °F 59% 30.31 in 10.0 mi Calm Calm - N/A   Clear
4:54 PM 35.1 °F 32.2 °F 21.7 °F 58% 30.30 in 10.0 mi East 3.5 mph - N/A   Clear
5:14 PM 35.2 °F 32.4 °F 21.4 °F 57% 30.30 in 10.0 mi East 3.5 mph - N/A   Clear
5:34 PM 35.1 °F 31.0 °F 21.6 °F 58% 30.31 in 10.0 mi East 4.6 mph - N/A   Clear
5:54 PM 35.1 °F 31.0 °F 21.2 °F 57% 30.31 in 10.0 mi East 4.6 mph - N/A   Clear
6:13 PM 34.9 °F 29.9 °F 21.2 °F 57% 30.30 in 10.0 mi East 5.8 mph - N/A   Clear
6:34 PM 34.7 °F 31.8 °F 21.4 °F 58% 30.30 in 10.0 mi ENE 3.5 mph - N/A   Clear
6:54 PM 34.5 °F 30.4 °F 20.3 °F 56% 30.30 in 10.0 mi East 4.6 mph - N/A   Clear
7:14 PM 33.8 °F 30.8 °F 20.1 °F 57% 30.30 in 10.0 mi East 3.5 mph - N/A   Clear
7:34 PM 33.1 °F 30.0 °F 20.1 °F 59% 30.30 in 10.0 mi East 3.5 mph - N/A   Clear
7:54 PM 32.2 °F 28.9 °F 20.1 °F 61% 30.30 in 10.0 mi ENE 3.5 mph - N/A   Clear
8:13 PM 32.0 °F 28.7 °F 19.6 °F 60% 30.31 in 10.0 mi ENE 3.5 mph - N/A   Clear
8:33 PM 28.0 °F - 20.1 °F 72% 30.31 in 10.0 mi Calm Calm - N/A   Clear
8:54 PM 27.3 °F 23.4 °F 20.5 °F 75% 30.31 in 10.0 mi East 3.5 mph - N/A   Clear
9:14 PM 25.5 °F - 19.4 °F 78% 30.32 in 10.0 mi Calm Calm - N/A   Clear
9:34 PM 25.9 °F 20.3 °F 19.2 °F 76% 30.32 in 10.0 mi East 4.6 mph - N/A   Clear
9:50 PM 24.6 °F 20.3 °F 19.0 °F 79% 30.32 in 10.0 mi East 3.5 mph - N/A   Clear
10:14 PM 24.8 °F - 18.5 °F 77% 30.33 in 10.0 mi Calm Calm - N/A   Clear
10:34 PM 23.5 °F - 18.0 °F 79% 30.33 in 10.0 mi Calm Calm - N/A   Clear
10:54 PM 21.6 °F - 17.6 °F 85% 30.33 in 10.0 mi Calm Calm - N/A   Clear
11:14 PM 21.7 °F - 18.3 °F 87% 30.33 in 10.0 mi Calm Calm - N/A   Clear
11:34 PM 21.0 °F - 18.0 °F 88% 30.33 in 10.0 mi Calm Calm - N/A   Clear
11:54 PM 21.0 °F - 17.6 °F 87% 30.33 in 10.0 mi Calm Calm - N/A   Clear